Location: Central Falls
(41.8900°N, 71.3929°W)
Time: 12:18:09
(UTC+00:00)

A-11 Canister half - Pass Details

Date: 03 December 2023
Orbit: 1526 x 1682 km, 47.3° (Epoch: 20 February)

Event Time Altitude Azimuth Distance (km) Brightness Sun altitude
Rises 07:22:00 0° 297° (WNW) 4,878 - -50.0°
Reaches altitude 10° 07:25:23 10° 291° (WNW) 3,868 - -49.4°
Maximum altitude 07:34:20 42° 225° (SW) 2,152 - -47.8°
Exits shadow 07:42:44 11° 159° (SSE) 3,661 11.0 -46.3°
Drops below altitude 10° 07:43:01 10° 158° (SSE) 3,742 11.1 -46.2°
Sets 07:46:15 0° 152° (SSE) 4,705 11.7 -45.6°
